| time (UTC) | temp F | wind direction | speed MPH | gust MPH | rain 1hr in | rain 24hr in | rain mn in | humidity % | barometer mb |
| 20260507135804 | 69 | 232 | 12.0 | 15.0 | 0.00 | 0.00 | 0.00 | 47 | 1009.7 |
| 20260507135306 | 70 | 236 | 15.0 | 18.0 | 0.00 | 0.00 | 0.00 | 47 | 1009.9 |
| 20260507134804 | 70 | 254 | 10.0 | 14.0 | 0.00 | 0.00 | 0.00 | 46 | 1009.9 |
| 20260507134304 | 70 | 238 | 12.0 | 17.0 | 0.00 | 0.00 | 0.00 | 47 | 1009.9 |
| 20260507133303 | 69 | 200 | 11.0 | 17.0 | 0.00 | 0.00 | 0.00 | 49 | 1010.0 |
| 20260507132804 | 70 | 202 | 10.0 | 20.0 | 0.00 | 0.00 | 0.00 | 49 | 1010.4 |
| 20260507132307 | 70 | 235 | 10.0 | 15.0 | 0.00 | 0.00 | 0.00 | 48 | 1009.9 |
| 20260507131804 | 69 | 235 | 11.0 | 17.0 | 0.00 | 0.00 | 0.00 | 48 | 1010.1 |
| 20260507131304 | 69 | 229 | 12.0 | 17.0 | 0.00 | 0.00 | 0.00 | 47 | 1010.2 |
| 20260507130804 | 68 | 222 | 11.0 | 17.0 | 0.00 | 0.00 | 0.00 | 50 | 1010.4 |
| 20260507130304 | 69 | 209 | 12.0 | 18.0 | 0.00 | 0.00 | 0.00 | 48 | 1010.2 |
| 20260507125804 | 69 | 229 | 9.0 | 14.0 | 0.00 | 0.00 | 0.00 | 50 | 1010.4 |
| 20260507125306 | 68 | 205 | 11.0 | 16.0 | 0.00 | 0.00 | 0.00 | 48 | 1010.3 |
| 20260507124804 | 69 | 234 | 12.0 | 17.0 | 0.00 | 0.00 | 0.00 | 48 | 1010.5 |
| 20260507124303 | 69 | 209 | 9.0 | 14.0 | 0.00 | 0.00 | 0.00 | 49 | 1010.5 |
| 20260507122804 | 69 | 191 | 13.0 | 17.0 | 0.00 | 0.00 | 0.00 | 49 | 1010.6 |
| 20260507121803 | 69 | 204 | 14.0 | 21.0 | 0.00 | 0.00 | 0.00 | 51 | 1010.5 |
| 20260507121304 | 69 | 232 | 11.0 | 20.0 | 0.00 | 0.00 | 0.00 | 51 | 1010.6 |
| 20260507120804 | 69 | 202 | 12.0 | 21.0 | 0.00 | 0.00 | 0.00 | 52 | 1010.9 |
| 20260507120304 | 69 | 219 | 10.0 | 21.0 | 0.00 | 0.00 | 0.00 | 52 | 1010.6 |
| 20260507115804 | 70 | 195 | 12.0 | 16.0 | 0.00 | 0.00 | 0.00 | 50 | 1010.8 |
| 20260507115307 | 69 | 188 | 12.0 | 17.0 | 0.00 | 0.00 | 0.00 | 52 | 1010.8 |
| 20260507114804 | 69 | 199 | 12.0 | 16.0 | 0.00 | 0.00 | 0.00 | 52 | 1010.7 |
| 20260507114304 | 69 | 190 | 10.0 | 16.0 | 0.00 | 0.00 | 0.00 | 51 | 1010.6 |
| 20260507113804 | 68 | 212 | 11.0 | 17.0 | 0.00 | 0.00 | 0.00 | 52 | 1010.9 |
| 20260507113304 | 70 | 230 | 11.0 | 14.0 | 0.00 | 0.00 | 0.00 | 50 | 1011.0 |
| 20260507112804 | 68 | 186 | 11.0 | 17.0 | 0.00 | 0.00 | 0.00 | 53 | 1011.0 |
| 20260507112306 | 68 | 200 | 10.0 | 17.0 | 0.00 | 0.00 | 0.00 | 53 | 1010.9 |
| 20260507111804 | 68 | 189 | 12.0 | 17.0 | 0.00 | 0.00 | 0.00 | 54 | 1011.0 |
| 20260507111304 | 68 | 195 | 9.0 | 13.0 | 0.00 | 0.00 | 0.00 | 53 | 1011.0 |
| 20260507110804 | 68 | 192 | 13.0 | 17.0 | 0.00 | 0.00 | 0.00 | 53 | 1010.9 |
| 20260507110304 | 69 | 233 | 10.0 | 20.0 | 0.00 | 0.00 | 0.00 | 52 | 1010.9 |
| 20260507105805 | 67 | 194 | 11.0 | 14.0 | 0.00 | 0.00 | 0.00 | 54 | 1011.1 |
| 20260507105306 | 67 | 198 | 12.0 | 15.0 | 0.00 | 0.00 | 0.00 | 54 | 1011.1 |
| 20260507104804 | 67 | 199 | 12.0 | 16.0 | 0.00 | 0.00 | 0.00 | 55 | 1011.3 |
| 20260507104305 | 67 | 204 | 7.0 | 14.0 | 0.00 | 0.00 | 0.00 | 58 | 1010.9 |
| 20260507103804 | 67 | 206 | 10.0 | 16.0 | 0.00 | 0.00 | 0.00 | 57 | 1011.1 |
| 20260507103304 | 69 | 185 | 10.0 | 16.0 | 0.00 | 0.00 | 0.00 | 55 | 1011.0 |
| 20260507102306 | 67 | 208 | 12.0 | 16.0 | 0.00 | 0.00 | 0.00 | 58 | 1011.2 |
| 20260507101804 | 66 | 195 | 9.0 | 15.0 | 0.00 | 0.00 | 0.00 | 59 | 1011.2 |
| 20260507101304 | 66 | 212 | 12.0 | 14.0 | 0.00 | 0.00 | 0.00 | 59 | 1011.1 |
| 20260507100804 | 66 | 213 | 11.0 | 16.0 | 0.00 | 0.00 | 0.00 | 58 | 1011.3 |
| 20260507100305 | 66 | 181 | 9.0 | 13.0 | 0.00 | 0.00 | 0.00 | 60 | 1011.2 |
| 20260507095804 | 66 | 175 | 7.0 | 12.0 | 0.00 | 0.00 | 0.00 | 60 | 1011.1 |
| 20260507094804 | 66 | 188 | 9.0 | 15.0 | 0.00 | 0.00 | 0.00 | 61 | 1011.3 |
| 20260507094304 | 64 | 195 | 7.0 | 14.0 | 0.00 | 0.00 | 0.00 | 62 | 1011.4 |
| 20260507093805 | 65 | 195 | 12.0 | 16.0 | 0.00 | 0.00 | 0.00 | 63 | 1011.2 |
| 20260507093304 | 65 | 212 | 12.0 | 15.0 | 0.00 | 0.00 | 0.00 | 64 | 1011.3 |
| 20260507092804 | 66 | 209 | 11.0 | 15.0 | 0.00 | 0.00 | 0.00 | 62 | 1011.3 |
| 20260507092307 | 65 | 185 | 10.0 | 17.0 | 0.00 | 0.00 | 0.00 | 63 | 1011.2 |
| 20260507091804 | 65 | 200 | 13.0 | 16.0 | 0.00 | 0.00 | 0.00 | 63 | 1011.3 |
| 20260507091304 | 64 | 175 | 10.0 | 13.0 | 0.00 | 0.00 | 0.00 | 66 | 1011.2 |
| 20260507090804 | 64 | 190 | 10.0 | 14.0 | 0.00 | 0.00 | 0.00 | 66 | 1011.2 |
| 20260507090304 | 64 | 194 | 9.0 | 15.0 | 0.00 | 0.00 | 0.00 | 67 | 1011.4 |
| 20260507085804 | 63 | 171 | 9.0 | 13.0 | 0.00 | 0.00 | 0.00 | 67 | 1011.3 |
| 20260507085306 | 64 | 192 | 9.0 | 16.0 | 0.00 | 0.00 | 0.00 | 67 | 1011.2 |
| 20260507084804 | 65 | 153 | 10.0 | 16.0 | 0.00 | 0.00 | 0.00 | 66 | 1011.2 |
| 20260507084304 | 64 | 195 | 7.0 | 13.0 | 0.00 | 0.00 | 0.00 | 68 | 1011.1 |
| 20260507083304 | 63 | 185 | 9.0 | 15.0 | 0.00 | 0.00 | 0.00 | 70 | 1011.3 |
| 20260507082804 | 63 | 170 | 7.0 | 13.0 | 0.00 | 0.00 | 0.00 | 71 | 1011.0 |
| 20260507082306 | 63 | 189 | 10.0 | 14.0 | 0.00 | 0.00 | 0.00 | 70 | 1011.3 |
| 20260507081804 | 62 | 164 | 7.0 | 13.0 | 0.00 | 0.00 | 0.00 | 71 | 1011.1 |
| 20260507080804 | 61 | 177 | 7.0 | 9.0 | 0.00 | 0.00 | 0.00 | 73 | 1011.0 |
| 20260507080304 | 61 | 172 | 8.0 | 12.0 | 0.00 | 0.00 | 0.00 | 74 | 1011.0 |
| 20260507075804 | 61 | 176 | 9.0 | 12.0 | 0.00 | 0.00 | 0.00 | 73 | 1011.1 |
| 20260507075307 | 60 | 175 | 8.0 | 14.0 | 0.00 | 0.00 | 0.00 | 74 | 1011.2 |
| 20260507074804 | 60 | 179 | 8.0 | 13.0 | 0.00 | 0.00 | 0.00 | 73 | 1010.9 |
| 20260507074304 | 60 | 150 | 8.0 | 13.0 | 0.00 | 0.00 | 0.00 | 73 | 1011.0 |
| 20260507073804 | 60 | 175 | 7.0 | 9.0 | 0.00 | 0.00 | 0.00 | 73 | 1010.9 |
| 20260507073304 | 60 | 165 | 6.0 | 9.0 | 0.00 | 0.00 | 0.00 | 74 | 1010.8 |
| 20260507072804 | 59 | 139 | 5.0 | 9.0 | 0.00 | 0.00 | 0.00 | 75 | 1010.8 |
| 20260507071803 | 59 | 120 | 6.0 | 10.0 | 0.00 | 0.00 | 0.00 | 76 | 1010.7 |
| 20260507071304 | 59 | 123 | 3.0 | 10.0 | 0.00 | 0.00 | 0.00 | 76 | 1010.6 |
| 20260507070803 | 59 | 178 | 3.0 | 8.0 | 0.00 | 0.00 | 0.00 | 75 | 1010.5 |
| 20260507070304 | 59 | 152 | 5.0 | 7.0 | 0.00 | 0.00 | 0.00 | 74 | 1010.6 |
| 20260507065804 | 58 | 129 | 5.0 | 9.0 | 0.00 | 0.00 | 0.00 | 75 | 1010.6 |
| 20260507065306 | 58 | 97 | 6.0 | 9.0 | 0.00 | 0.00 | 0.00 | 76 | 1010.4 |
| 20260507064804 | 58 | 141 | 5.0 | 9.0 | 0.00 | 0.00 | 0.00 | 76 | 1010.4 |
| 20260507064304 | 58 | 119 | 3.0 | 8.0 | 0.00 | 0.00 | 0.00 | 76 | 1010.5 |
| 20260507063804 | 58 | 71 | 3.0 | 7.0 | 0.00 | 0.00 | 0.00 | 77 | 1010.6 |
| 20260507063304 | 57 | 111 | 5.0 | 8.0 | 0.00 | 0.00 | 0.00 | 77 | 1010.5 |
| 20260507062804 | 57 | 68 | 5.0 | 9.0 | 0.00 | 0.00 | 0.00 | 78 | 1010.5 |
| 20260507062306 | 57 | 72 | 5.0 | 8.0 | 0.00 | 0.00 | 0.00 | 79 | 1010.5 |
| 20260507061804 | 56 | 57 | 6.0 | 8.0 | 0.00 | 0.00 | 0.00 | 80 | 1010.4 |
| 20260507060803 | 57 | 63 | 3.0 | 6.0 | 0.00 | 0.00 | 0.00 | 79 | 1010.4 |
| 20260507060304 | 56 | 31 | 6.0 | 8.0 | 0.00 | 0.00 | 0.00 | 79 | 1010.2 |
| 20260507055804 | 56 | 37 | 5.0 | 7.0 | 0.00 | 0.00 | 0.00 | 80 | 1010.0 |
| 20260507055306 | 56 | 35 | 5.0 | 8.0 | 0.00 | 0.00 | 0.00 | 80 | 1010.0 |
| 20260507054804 | 55 | 38 | 6.0 | 7.0 | 0.00 | 0.00 | 0.00 | 81 | 1009.9 |
| 20260507054303 | 55 | 61 | 6.0 | 7.0 | 0.00 | 0.00 | 0.00 | 81 | 1009.7 |
| 20260507053804 | 55 | 53 | 5.0 | 6.0 | 0.00 | 0.00 | 0.00 | 81 | 1010.0 |
| 20260507052804 | 55 | 72 | 2.0 | 3.0 | 0.00 | 0.00 | 0.00 | 81 | 1009.9 |
| 20260507052306 | 55 | 103 | 2.0 | 3.0 | 0.00 | 0.00 | 0.00 | 81 | 1009.9 |
| 20260507051804 | 55 | 198 | 2.0 | 3.0 | 0.00 | 0.00 | 0.00 | 81 | 1010.0 |
| 20260507051304 | 55 | 227 | 1.0 | 2.0 | 0.00 | 0.00 | 0.00 | 82 | 1009.9 |
| 20260507050804 | 55 | 262 | 1.0 | 3.0 | 0.00 | 0.00 | 0.00 | 82 | 1009.8 |
| 20260507050304 | 55 | 180 | 2.0 | 3.0 | 0.00 | 0.00 | 0.00 | 82 | 1009.9 |
| 20260507045804 | 55 | 250 | 2.0 | 3.0 | 0.00 | 0.00 | 0.00 | 82 | 1010.0 |
| 20260507045306 | 55 | 8 | 1.0 | 3.0 | 0.00 | 0.00 | 0.00 | 82 | 1009.8 |
| 20260507043804 | 55 | 153 | 2.0 | 3.0 | 0.00 | 0.00 | 0.00 | 82 | 1009.8 |
| 20260507042804 | 55 | 52 | 2.0 | 5.0 | 0.00 | 0.00 | 0.00 | 82 | 1009.6 |
| 20260507042306 | 55 | 215 | 2.0 | 5.0 | 0.00 | 0.00 | 0.00 | 81 | 1009.5 |
| 20260507041804 | 56 | 135 | 2.0 | 5.0 | 0.00 | 0.00 | 0.00 | 81 | 1009.4 |
| 20260507041305 | 56 | 235 | 2.0 | 5.0 | 0.00 | 0.00 | 0.00 | 80 | 1009.5 |
| 20260507040804 | 56 | 202 | 2.0 | 5.0 | 0.00 | 0.00 | 0.00 | 79 | 1009.3 |
| 20260507040304 | 56 | 158 | 2.0 | 6.0 | 0.00 | 0.00 | 0.00 | 79 | 1009.4 |
| 20260507035804 | 56 | 199 | 3.0 | 6.0 | 0.00 | 0.00 | 0.00 | 79 | 1009.4 |
| 20260507035306 | 56 | 181 | 2.0 | 3.0 | 0.00 | 0.00 | 0.00 | 79 | 1009.4 |
| 20260507034804 | 56 | 180 | 2.0 | 3.0 | 0.00 | 0.00 | 0.00 | 79 | 1009.5 |
| 20260507034304 | 56 | 183 | 2.0 | 3.0 | 0.00 | 0.00 | 0.00 | 79 | 1009.5 |
| 20260507033803 | 56 | 137 | 1.0 | 2.0 | 0.00 | 0.00 | 0.00 | 79 | 1009.4 |
| 20260507033304 | 56 | 156 | 1.0 | 2.0 | 0.00 | 0.00 | 0.00 | 79 | 1009.2 |
| 20260507032804 | 56 | 202 | 1.0 | 3.0 | 0.00 | 0.00 | 0.00 | 79 | 1009.3 |
| 20260507032306 | 56 | 260 | 1.0 | 3.0 | 0.00 | 0.00 | 0.00 | 79 | 1009.4 |
| 20260507031804 | 56 | 200 | 1.0 | 3.0 | 0.00 | 0.00 | 0.00 | 78 | 1009.4 |
| 20260507031304 | 56 | 204 | 1.0 | 2.0 | 0.00 | 0.00 | 0.00 | 78 | 1009.4 |
| 20260507030804 | 56 | 186 | 1.0 | 3.0 | 0.00 | 0.00 | 0.00 | 77 | 1009.4 |
| 20260507025804 | 57 | 44 | 0.0 | 2.0 | 0.00 | 0.00 | 0.00 | 77 | 1009.2 |
| 20260507025306 | 57 | 84 | 1.0 | 2.0 | 0.00 | 0.00 | 0.00 | 77 | 1009.3 |
| 20260507024804 | 57 | 120 | 1.0 | 3.0 | 0.00 | 0.00 | 0.00 | 77 | 1009.2 |
| 20260507024304 | 57 | 159 | 2.0 | 5.0 | 0.00 | 0.00 | 0.00 | 76 | 1009.1 |
| 20260507023303 | 57 | 145 | 2.0 | 5.0 | 0.00 | 0.00 | 0.00 | 76 | 1009.1 |
| 20260507022804 | 57 | 164 | 3.0 | 3.0 | 0.00 | 0.00 | 0.00 | 75 | 1009.0 |
| 20260507022306 | 57 | 135 | 1.0 | 3.0 | 0.00 | 0.00 | 0.00 | 75 | 1009.1 |
| 20260507021804 | 57 | 145 | 2.0 | 3.0 | 0.00 | 0.00 | 0.00 | 75 | 1009.0 |
| 20260507021304 | 57 | 101 | 2.0 | 5.0 | 0.00 | 0.00 | 0.00 | 75 | 1009.0 |
| 20260507020804 | 57 | 162 | 2.0 | 3.0 | 0.00 | 0.00 | 0.00 | 75 | 1009.0 |
| 20260507020304 | 57 | 177 | 2.0 | 5.0 | 0.00 | 0.00 | 0.00 | 75 | 1009.1 |
| 20260507015804 | 57 | 165 | 3.0 | 5.0 | 0.00 | 0.00 | 0.00 | 75 | 1009.2 |
| 20260507014804 | 57 | 166 | 5.0 | 7.0 | 0.00 | 0.00 | 0.00 | 76 | 1009.1 |
| 20260507014304 | 57 | 174 | 3.0 | 7.0 | 0.00 | 0.00 | 0.00 | 76 | 1009.3 |
| 20260507013804 | 57 | 161 | 2.0 | 5.0 | 0.00 | 0.00 | 0.00 | 76 | 1009.1 |
| 20260507013304 | 57 | 174 | 1.0 | 3.0 | 0.00 | 0.00 | 0.00 | 76 | 1009.3 |
| 20260507012804 | 57 | 158 | 2.0 | 3.0 | 0.00 | 0.00 | 0.00 | 76 | 1009.3 |
| 20260507012306 | 57 | 185 | 2.0 | 3.0 | 0.00 | 0.00 | 0.00 | 76 | 1009.5 |
| 20260507010804 | 57 | 164 | 2.0 | 3.0 | 0.00 | 0.00 | 0.00 | 75 | 1009.5 |
| 20260507010304 | 57 | 285 | 0.0 | 1.0 | 0.00 | 0.00 | 0.00 | 75 | 1009.5 |
| 20260507005804 | 57 | 35 | 1.0 | 2.0 | 0.00 | 0.00 | 0.00 | 75 | 1009.6 |
| 20260507005305 | 57 | 18 | 1.0 | 2.0 | 0.00 | 0.00 | 0.00 | 76 | 1009.7 |
| 20260507004804 | 57 | 167 | 0.0 | 2.0 | 0.00 | 0.00 | 0.00 | 76 | 1009.6 |
| 20260507004304 | 57 | 225 | 1.0 | 2.0 | 0.00 | 0.00 | 0.00 | 76 | 1009.6 |
| 20260507003804 | 57 | 238 | 1.0 | 2.0 | 0.00 | 0.00 | 0.00 | 75 | 1009.5 |
| 20260507003303 | 57 | 198 | 2.0 | 5.0 | 0.00 | 0.00 | 0.00 | 75 | 1009.8 |
| 20260507002803 | 57 | 189 | 3.0 | 6.0 | 0.00 | 0.00 | 0.00 | 75 | 1009.7 |
| 20260507002306 | 57 | 176 | 3.0 | 3.0 | 0.00 | 0.00 | 0.00 | 75 | 1009.9 |
| 20260507001804 | 57 | 187 | 1.0 | 3.0 | 0.00 | 0.00 | 0.00 | 75 | 1009.8 |
| 20260507001304 | 57 | 148 | 0.0 | 2.0 | 0.00 | 0.00 | 0.00 | 75 | 1009.9 |
| 20260507000803 | 57 | 257 | 1.0 | 2.0 | 0.00 | 0.00 | 0.00 | 75 | 1009.9 |
| 20260507000306 | 57 | 172 | 2.0 | 6.0 | 0.00 | 0.00 | 0.00 | 75 | 1010.0 |
| 20260506235306 | 57 | 169 | 3.0 | 5.0 | 0.00 | 0.00 | 0.00 | 76 | 1009.8 |
| 20260506234804 | 57 | 174 | 2.0 | 3.0 | 0.00 | 0.00 | 0.00 | 76 | 1009.9 |
| 20260506234304 | 57 | 181 | 2.0 | 3.0 | 0.00 | 0.00 | 0.00 | 76 | 1010.1 |
| 20260506233303 | 57 | 181 | 3.0 | 3.0 | 0.00 | 0.00 | 0.00 | 76 | 1010.2 |
| 20260506232306 | 57 | 208 | 1.0 | 3.0 | 0.00 | 0.00 | 0.00 | 75 | 1010.4 |
| 20260506231304 | 57 | 151 | 1.0 | 2.0 | 0.00 | 0.00 | 0.00 | 74 | 1010.1 |
| 20260506230804 | 57 | 324 | 0.0 | 1.0 | 0.00 | 0.00 | 0.00 | 74 | 1010.0 |
| 20260506230304 | 57 | 271 | 1.0 | 2.0 | 0.00 | 0.00 | 0.00 | 73 | 1010.1 |
| 20260506225804 | 57 | 247 | 2.0 | 5.0 | 0.00 | 0.00 | 0.00 | 73 | 1010.2 |
| 20260506225306 | 57 | 216 | 3.0 | 5.0 | 0.00 | 0.00 | 0.00 | 72 | 1010.2 |
| 20260506224804 | 57 | 241 | 3.0 | 5.0 | 0.00 | 0.00 | 0.00 | 73 | 1010.3 |
| 20260506223805 | 58 | 212 | 2.0 | 5.0 | 0.00 | 0.00 | 0.00 | 71 | 1010.2 |
| 20260506223304 | 58 | 219 | 3.0 | 5.0 | 0.00 | 0.00 | 0.00 | 69 | 1010.0 |
| 20260506222804 | 58 | 188 | 3.0 | 6.0 | 0.00 | 0.00 | 0.00 | 68 | 1010.3 |
| 20260506222306 | 58 | 190 | 5.0 | 6.0 | 0.00 | 0.00 | 0.00 | 67 | 1010.1 |
| 20260506221305 | 57 | 194 | 4.0 | 5.0 | 0.00 | 0.00 | 0.00 | 67 | 1010.0 |
| 20260506220305 | 58 | 216 | 3.0 | 6.0 | 0.00 | 0.00 | 0.00 | 65 | 1010.0 |
| 20260506215804 | 59 | 213 | 4.0 | 6.0 | 0.00 | 0.00 | 0.00 | 63 | 1010.0 |
| 20260506215306 | 58 | 199 | 4.0 | 6.0 | 0.00 | 0.00 | 0.00 | 63 | 1010.0 |
| 20260506214304 | 60 | 238 | 3.0 | 6.0 | 0.00 | 0.00 | 0.00 | 60 | 1010.1 |
| 20260506213805 | 60 | 224 | 4.0 | 6.0 | 0.00 | 0.00 | 0.00 | 59 | 1010.2 |
| 20260506213304 | 61 | 251 | 3.0 | 5.0 | 0.00 | 0.00 | 0.00 | 57 | 1009.9 |
| 20260506212805 | 61 | 228 | 3.0 | 5.0 | 0.00 | 0.00 | 0.00 | 56 | 1009.8 |
| 20260506212306 | 62 | 255 | 3.0 | 5.0 | 0.00 | 0.00 | 0.00 | 56 | 1009.8 |
| 20260506211304 | 63 | 275 | 5.0 | 8.0 | 0.00 | 0.00 | 0.00 | 54 | 1009.7 |
| 20260506210804 | 63 | 276 | 5.0 | 9.0 | 0.00 | 0.00 | 0.00 | 54 | 1009.6 |
| 20260506210304 | 63 | 276 | 5.0 | 7.0 | 0.00 | 0.00 | 0.00 | 54 | 1009.5 |
| 20260506205804 | 63 | 271 | 3.0 | 6.0 | 0.00 | 0.00 | 0.00 | 54 | 1009.7 |
| 20260506205306 | 63 | 276 | 5.0 | 8.0 | 0.00 | 0.00 | 0.00 | 53 | 1009.5 |
| 20260506204305 | 63 | 282 | 9.0 | 12.0 | 0.00 | 0.00 | 0.00 | 53 | 1009.4 |
| 20260506203804 | 64 | 278 | 5.0 | 8.0 | 0.00 | 0.00 | 0.00 | 52 | 1009.3 |
| 20260506203304 | 64 | 279 | 6.0 | 7.0 | 0.00 | 0.00 | 0.00 | 52 | 1009.3 |
| 20260506202804 | 64 | 259 | 6.0 | 8.0 | 0.00 | 0.00 | 0.00 | 51 | 1009.4 |
| 20260506202306 | 64 | 265 | 7.0 | 9.0 | 0.00 | 0.00 | 0.00 | 51 | 1009.4 |
| 20260506201804 | 64 | 261 | 5.0 | 9.0 | 0.00 | 0.00 | 0.00 | 51 | 1009.2 |
| 20260506201304 | 64 | 260 | 3.0 | 6.0 | 0.00 | 0.00 | 0.00 | 51 | 1009.3 |
| 20260506200805 | 64 | 258 | 5.0 | 7.0 | 0.00 | 0.00 | 0.00 | 51 | 1009.3 |
| 20260506200304 | 65 | 250 | 5.0 | 7.0 | 0.00 | 0.00 | 0.00 | 51 | 1009.1 |
| 20260506195804 | 64 | 253 | 3.0 | 5.0 | 0.00 | 0.00 | 0.00 | 51 | 1009.1 |
| 20260506195306 | 65 | 255 | 4.0 | 6.0 | 0.00 | 0.00 | 0.00 | 50 | 1009.1 |
| 20260506194804 | 66 | 259 | 3.0 | 6.0 | 0.00 | 0.00 | 0.00 | 48 | 1009.1 |
| 20260506194304 | 66 | 253 | 6.0 | 8.0 | 0.00 | 0.00 | 0.00 | 48 | 1008.8 |
| 20260506193804 | 66 | 268 | 5.0 | 9.0 | 0.00 | 0.00 | 0.00 | 47 | 1008.9 |
| 20260506193304 | 67 | 256 | 7.0 | 10.0 | 0.00 | 0.00 | 0.00 | 46 | 1008.8 |
| 20260506192804 | 67 | 264 | 7.0 | 10.0 | 0.00 | 0.00 | 0.00 | 46 | 1008.8 |
| 20260506192305 | 67 | 258 | 7.0 | 9.0 | 0.00 | 0.00 | 0.00 | 46 | 1008.8 |
| 20260506191804 | 67 | 260 | 7.0 | 9.0 | 0.00 | 0.00 | 0.00 | 46 | 1008.8 |
| 20260506191304 | 68 | 265 | 6.0 | 9.0 | 0.00 | 0.00 | 0.00 | 46 | 1008.7 |
| 20260506190804 | 68 | 257 | 6.0 | 12.0 | 0.00 | 0.00 | 0.00 | 46 | 1008.6 |
| 20260506190304 | 68 | 247 | 6.0 | 10.0 | 0.00 | 0.00 | 0.00 | 46 | 1008.5 |
| 20260506185804 | 69 | 249 | 9.0 | 13.0 | 0.00 | 0.00 | 0.00 | 45 | 1008.6 |
| 20260506185306 | 69 | 257 | 10.0 | 14.0 | 0.00 | 0.00 | 0.00 | 44 | 1008.5 |
| 20260506184304 | 70 | 261 | 9.0 | 15.0 | 0.00 | 0.00 | 0.00 | 43 | 1008.5 |
| 20260506183804 | 70 | 253 | 9.0 | 13.0 | 0.00 | 0.00 | 0.00 | 42 | 1008.5 |
| 20260506183304 | 70 | 259 | 10.0 | 14.0 | 0.00 | 0.00 | 0.00 | 42 | 1008.5 |
| 20260506182804 | 70 | 255 | 10.0 | 15.0 | 0.00 | 0.00 | 0.00 | 42 | 1008.5 |
| 20260506182306 | 71 | 273 | 10.0 | 16.0 | 0.00 | 0.00 | 0.00 | 41 | 1008.5 |
| 20260506181804 | 71 | 253 | 10.0 | 14.0 | 0.00 | 0.00 | 0.00 | 41 | 1008.3 |
| 20260506181304 | 71 | 248 | 12.0 | 17.0 | 0.00 | 0.00 | 0.00 | 40 | 1008.4 |
| 20260506180804 | 71 | 241 | 8.0 | 12.0 | 0.00 | 0.00 | 0.00 | 40 | 1008.5 |
| 20260506180304 | 71 | 254 | 10.0 | 13.0 | 0.00 | 0.00 | 0.00 | 41 | 1008.4 |
| 20260506175804 | 72 | 248 | 10.0 | 15.0 | 0.00 | 0.00 | 0.00 | 40 | 1008.4 |
| 20260506175306 | 72 | 232 | 10.0 | 14.0 | 0.00 | 0.00 | 0.00 | 39 | 1008.4 |
| 20260506174804 | 72 | 251 | 10.0 | 16.0 | 0.00 | 0.00 | 0.00 | 38 | 1008.5 |
| 20260506174303 | 72 | 224 | 11.0 | 14.0 | 0.00 | 0.00 | 0.00 | 38 | 1008.5 |
| 20260506173803 | 72 | 235 | 12.0 | 15.0 | 0.00 | 0.00 | 0.00 | 37 | 1008.6 |
| 20260506173304 | 72 | 231 | 9.0 | 15.0 | 0.00 | 0.00 | 0.00 | 36 | 1008.5 |
| 20260506172306 | 72 | 210 | 10.0 | 16.0 | 0.00 | 0.00 | 0.00 | 36 | 1008.5 |
| 20260506171804 | 73 | 217 | 9.0 | 14.0 | 0.00 | 0.00 | 0.00 | 36 | 1008.8 |
| 20260506171303 | 73 | 204 | 12.0 | 15.0 | 0.00 | 0.00 | 0.00 | 36 | 1008.7 |
| 20260506170805 | 73 | 241 | 9.0 | 14.0 | 0.00 | 0.00 | 0.00 | 36 | 1008.7 |
| 20260506170304 | 73 | 239 | 11.0 | 16.0 | 0.00 | 0.00 | 0.00 | 36 | 1008.7 |
| 20260506165805 | 73 | 233 | 12.0 | 17.0 | 0.00 | 0.00 | 0.00 | 36 | 1008.7 |
| 20260506165305 | 73 | 248 | 9.0 | 17.0 | 0.00 | 0.00 | 0.00 | 36 | 1008.8 |
| 20260506164304 | 74 | 200 | 10.0 | 17.0 | 0.00 | 0.00 | 0.00 | 36 | 1008.6 |
| 20260506163804 | 74 | 221 | 9.0 | 15.0 | 0.00 | 0.00 | 0.00 | 36 | 1008.8 |
| 20260506163304 | 74 | 205 | 13.0 | 18.0 | 0.00 | 0.00 | 0.00 | 36 | 1008.7 |
| 20260506162804 | 74 | 193 | 10.0 | 15.0 | 0.00 | 0.00 | 0.00 | 36 | 1008.7 |
| 20260506162307 | 74 | 219 | 10.0 | 17.0 | 0.00 | 0.00 | 0.00 | 36 | 1008.7 |
| 20260506161805 | 73 | 189 | 6.0 | 13.0 | 0.00 | 0.00 | 0.00 | 35 | 1008.5 |
| 20260506161304 | 74 | 192 | 5.0 | 9.0 | 0.00 | 0.00 | 0.00 | 31 | 1008.7 |
| 20260506160804 | 76 | 195 | 4.0 | 9.0 | 0.00 | 0.00 | 0.00 | 28 | 1008.5 |
| 20260506155804 | 74 | 273 | 2.0 | 7.0 | 0.00 | 0.00 | 0.00 | 27 | 1008.8 |
| 20260506154804 | 75 | 140 | 3.0 | 5.0 | 0.00 | 0.00 | 0.00 | 28 | 1008.7 |
| 20260506154304 | 73 | 28 | 1.0 | 7.0 | 0.00 | 0.00 | 0.00 | 27 | 1008.8 |
| 20260506153804 | 74 | 266 | 2.0 | 9.0 | 0.00 | 0.00 | 0.00 | 28 | 1008.7 |
| 20260506153303 | 75 | 279 | 7.0 | 10.0 | 0.00 | 0.00 | 0.00 | 27 | 1009.0 |
| 20260506152804 | 75 | 236 | 6.0 | 9.0 | 0.00 | 0.00 | 0.00 | 27 | 1008.9 |
| 20260506152306 | 76 | 292 | 8.0 | 10.0 | 0.00 | 0.00 | 0.00 | 27 | 1009.0 |
| 20260506151804 | 75 | 245 | 3.0 | 6.0 | 0.00 | 0.00 | 0.00 | 28 | 1009.2 |
| 20260506151304 | 74 | 251 | 3.0 | 10.0 | 0.00 | 0.00 | 0.00 | 28 | 1009.2 |
| 20260506150804 | 74 | 177 | 5.0 | 10.0 | 0.00 | 0.00 | 0.00 | 29 | 1009.3 |
| 20260506150305 | 74 | 268 | 7.0 | 10.0 | 0.00 | 0.00 | 0.00 | 29 | 1009.5 |
| 20260506145804 | 75 | 212 | 5.0 | 9.0 | 0.00 | 0.00 | 0.00 | 30 | 1009.5 |
| 20260506145306 | 75 | 263 | 4.0 | 10.0 | 0.00 | 0.00 | 0.00 | 29 | 1009.5 |
| 20260506144804 | 75 | 243 | 6.0 | 9.0 | 0.00 | 0.00 | 0.00 | 30 | 1009.7 |
| 20260506144304 | 73 | 103 | 3.0 | 6.0 | 0.00 | 0.00 | 0.00 | 32 | 1009.7 |
| 20260506143804 | 73 | 107 | 7.0 | 10.0 | 0.00 | 0.00 | 0.00 | 33 | 1009.9 |
| 20260506143304 | 76 | 99 | 3.0 | 8.0 | 0.00 | 0.00 | 0.00 | 31 | 1009.8 |
| 20260506142804 | 74 | 321 | 3.0 | 9.0 | 0.00 | 0.00 | 0.00 | 31 | 1010.0 |
| 20260506142306 | 74 | 291 | 2.0 | 7.0 | 0.00 | 0.00 | 0.00 | 31 | 1010.0 |
| 20260506141304 | 73 | 319 | 5.0 | 9.0 | 0.00 | 0.00 | 0.00 | 32 | 1010.3 |
| 20260506140804 | 73 | 272 | 5.0 | 8.0 | 0.00 | 0.00 | 0.00 | 32 | 1010.3 |
| 20260506140304 | 73 | 222 | 8.0 | 13.0 | 0.00 | 0.00 | 0.00 | 32 | 1010.4 |